| time (UTC) | temp F | wind direction | speed knots | gust knots | rain 1hr in | rain 24hr in | rain mn in | humidity % | barometer mb |
| 20260507064522 | 55 | 236 | 0.9 | 8.7 | 0.00 | 0.13 | 0.00 | 75 | 1011.0 |
| 20260507063022 | 55 | 303 | 1.7 | 7.8 | 0.00 | 0.13 | 0.00 | 75 | 1011.1 |
| 20260507061518 | 54 | 300 | 1.7 | 7.0 | 0.00 | 0.13 | 0.00 | 77 | 1010.9 |
| 20260507060015 | 54 | 214 | 0.9 | 5.2 | 0.00 | 0.13 | 0.00 | 79 | 1010.8 |
| 20260507054512 | 52 | 259 | 1.7 | 6.1 | 0.00 | 0.13 | 0.00 | 82 | 1010.5 |
| 20260507053010 | 52 | 204 | 0.9 | 7.8 | 0.00 | 0.13 | 0.00 | 83 | 1010.1 |
| 20260507051510 | 52 | 250 | 0.9 | 4.3 | 0.00 | 0.13 | 0.00 | 84 | 1010.0 |
| 20260507050008 | 52 | 225 | 0.9 | 5.2 | 0.00 | 0.13 | 0.00 | 86 | 1009.9 |
| 20260507044506 | 51 | 214 | 1.7 | 3.5 | 0.00 | 0.13 | 0.00 | 87 | 1009.8 |
| 20260507043003 | 51 | 202 | 0.0 | 4.3 | 0.00 | 0.13 | 0.00 | 88 | 1009.6 |
| 20260507041501 | 51 | 233 | 0.9 | 3.5 | 0.00 | 0.13 | 0.00 | 89 | 1009.4 |
| 20260507040105 | 51 | 250 | 1.7 | 5.2 | 0.00 | 0.13 | 0.00 | 89 | 1009.2 |
| 20260507034601 | 51 | 187 | 0.9 | 2.6 | 0.00 | 0.13 | 0.00 | 89 | 1009.1 |
| 20260507033155 | 52 | 189 | 0.9 | 3.5 | 0.00 | 0.13 | 0.00 | 88 | 1008.9 |
| 20260507031553 | 52 | 210 | 0.0 | 6.1 | 0.00 | 0.13 | 0.00 | 87 | 1008.8 |
| 20260507030052 | 53 | 219 | 0.0 | 2.6 | 0.00 | 0.13 | 0.00 | 87 | 1008.6 |
| 20260507024557 | 53 | 253 | 0.0 | 1.7 | 0.00 | 0.13 | 0.00 | 86 | 1008.7 |
| 20260507023049 | 53 | 168 | 0.9 | 3.5 | 0.00 | 0.13 | 0.00 | 86 | 1008.6 |
| 20260507021550 | 53 | 212 | 0.9 | 4.3 | 0.00 | 0.13 | 0.00 | 87 | 1008.6 |
| 20260507020053 | 53 | 208 | 0.0 | 2.6 | 0.00 | 0.13 | 0.00 | 87 | 1008.3 |
| 20260507014549 | 53 | 247 | 0.9 | 1.7 | 0.00 | 0.13 | 0.00 | 88 | 1008.1 |
| 20260507013045 | 53 | 207 | 0.0 | 2.6 | 0.00 | 0.13 | 0.00 | 89 | 1008.3 |
| 20260507011547 | 53 | 214 | 0.9 | 3.5 | 0.00 | 0.13 | 0.00 | 89 | 1008.4 |
| 20260507010054 | 53 | 297 | 0.9 | 4.3 | 0.00 | 0.13 | 0.00 | 88 | 1008.3 |
| 20260507004541 | 53 | 279 | 0.0 | 3.5 | 0.00 | 0.13 | 0.00 | 88 | 1008.1 |
| 20260507003040 | 54 | 300 | 0.0 | 1.7 | 0.00 | 0.13 | 0.00 | 88 | 1007.9 |
| 20260507001546 | 54 | 193 | 0.0 | 1.7 | 0.00 | 0.13 | 0.00 | 88 | 1007.7 |
| 20260507000037 | 54 | 120 | 0.0 | 0.9 | 0.00 | 0.13 | 0.00 | 88 | 1007.7 |
| 20260506234535 | 54 | 257 | 0.0 | 3.5 | 0.00 | 0.13 | 0.00 | 87 | 1007.7 |
| 20260506233036 | 54 | 236 | 0.0 | 2.6 | 0.00 | 0.13 | 0.00 | 87 | 1007.5 |
| 20260506231533 | 54 | 227 | 0.0 | 2.6 | 0.00 | 0.13 | 0.00 | 85 | 1007.4 |
| 20260506230031 | 54 | 308 | 0.0 | 1.7 | 0.00 | 0.13 | 0.00 | 85 | 1007.2 |
| 20260506224530 | 54 | 257 | 0.0 | 0.9 | 0.00 | 0.13 | 0.00 | 85 | 1007.1 |
| 20260506223025 | 54 | 257 | 0.0 | 2.6 | 0.00 | 0.13 | 0.00 | 86 | 1006.9 |
| 20260506221523 | 55 | 342 | 0.0 | 3.5 | 0.00 | 0.13 | 0.00 | 85 | 1006.6 |
| 20260506220019 | 55 | 16 | 4.3 | 10.4 | 0.00 | 0.13 | 0.13 | 84 | 1005.3 |
| 20260506214618 | 55 | 301 | 1.7 | 7.0 | 0.00 | 0.13 | 0.13 | 82 | 1005.7 |
| 20260506213016 | 56 | 45 | 0.9 | 3.5 | 0.00 | 0.13 | 0.13 | 82 | 1005.9 |
| 20260506211516 | 56 | 229 | 0.9 | 3.5 | 0.00 | 0.13 | 0.13 | 83 | 1005.8 |
| 20260506210017 | 56 | 259 | 1.7 | 7.8 | 0.00 | 0.13 | 0.13 | 83 | 1005.6 |
| 20260506204516 | 56 | 31 | 0.9 | 5.2 | 0.00 | 0.13 | 0.13 | 83 | 1005.6 |
| 20260506203015 | 57 | 358 | 1.7 | 11.3 | 0.00 | 0.13 | 0.13 | 83 | 1005.4 |
| 20260506201520 | 57 | 53 | 0.0 | 1.7 | 0.00 | 0.13 | 0.13 | 84 | 1004.3 |
| 20260506200016 | 57 | 324 | 0.0 | 3.5 | 0.00 | 0.13 | 0.13 | 84 | 1004.2 |
| 20260506194514 | 57 | 2 | 1.7 | 4.3 | 0.00 | 0.13 | 0.13 | 83 | 1004.1 |
| 20260506193013 | 57 | 24 | 0.0 | 2.6 | 0.00 | 0.13 | 0.13 | 83 | 1004.2 |
| 20260506191513 | 57 | 41 | 1.7 | 7.8 | 0.00 | 0.13 | 0.13 | 82 | 1004.2 |
| 20260506190012 | 58 | 76 | 2.6 | 12.2 | 0.00 | 0.13 | 0.13 | 81 | 1003.9 |
| 20260506184520 | 60 | 24 | 2.6 | 9.6 | 0.00 | 0.13 | 0.13 | 81 | 1003.7 |
| 20260506183010 | 60 | 292 | 3.5 | 11.3 | 0.00 | 0.13 | 0.13 | 80 | 1003.3 |
| 20260506181509 | 61 | 7 | 1.7 | 6.1 | 0.00 | 0.13 | 0.13 | 77 | 1003.2 |
| 20260506180010 | 62 | 62 | 2.6 | 6.1 | 0.00 | 0.13 | 0.13 | 75 | 1003.1 |
| 20260506174511 | 63 | 349 | 2.6 | 8.7 | 0.00 | 0.13 | 0.13 | 76 | 1003.0 |
| 20260506173009 | 63 | 39 | 1.7 | 5.2 | 0.00 | 0.13 | 0.13 | 76 | 1002.9 |
| 20260506171508 | 65 | 35 | 0.9 | 1.7 | 0.00 | 0.13 | 0.13 | 72 | 1002.8 |
| 20260506170011 | 67 | 175 | 0.0 | 4.3 | 0.00 | 0.13 | 0.13 | 56 | 1002.9 |
| 20260506164507 | 68 | 133 | 0.9 | 7.0 | 0.00 | 0.13 | 0.13 | 57 | 1002.8 |
| 20260506163008 | 68 | 6 | 0.0 | 1.7 | 0.00 | 0.13 | 0.13 | 65 | 1003.0 |
| 20260506161503 | 66 | 257 | 0.0 | 0.9 | 0.00 | 0.13 | 0.13 | 74 | 1003.3 |
| 20260506160001 | 64 | 346 | 0.0 | 2.6 | 0.00 | 0.13 | 0.13 | 77 | 1003.5 |
| 20260506154602 | 64 | 44 | 0.9 | 2.6 | 0.00 | 0.13 | 0.13 | 76 | 1003.5 |
| 20260506153058 | 64 | 360 | 0.9 | 3.5 | 0.00 | 0.13 | 0.13 | 75 | 1003.7 |
| 20260506151558 | 63 | 256 | 1.7 | 6.1 | 0.00 | 0.13 | 0.13 | 75 | 1003.9 |
| 20260506144608 | 65 | 32 | 0.9 | 4.3 | 0.09 | 0.13 | 0.13 | 73 | 1004.3 |
| 20260506143055 | 65 | 58 | 0.0 | 1.7 | 0.09 | 0.13 | 0.13 | 74 | 1004.5 |
| 20260506141550 | 64 | 356 | 0.9 | 2.6 | 0.09 | 0.13 | 0.13 | 74 | 1004.6 |
| 20260506140103 | 66 | 346 | 0.0 | 5.2 | 0.04 | 0.04 | 0.04 | 66 | 1004.6 |
| 20260506134547 | 66 | 20 | 0.0 | 2.6 | 0.04 | 0.04 | 0.04 | 68 | 1004.7 |
| 20260506133056 | 65 | 59 | 0.0 | 1.7 | 0.04 | 0.04 | 0.04 | 71 | 1005.0 |
| 20260506131546 | 64 | 148 | 0.0 | 5.2 | 0.04 | 0.04 | 0.04 | 70 | 1005.4 |
| 20260506130110 | 68 | 207 | 1.7 | 6.1 | 0.00 | 0.00 | 0.00 | 51 | 1005.5 |
| 20260506124540 | 70 | 207 | 2.6 | 7.8 | 0.00 | 0.00 | 0.00 | 49 | 1005.5 |
| 20260506123044 | 70 | 197 | 0.9 | 4.3 | 0.00 | 0.00 | 0.00 | 44 | 1005.5 |
| 20260506121549 | 71 | 125 | 1.7 | 9.6 | 0.00 | 0.00 | 0.00 | 44 | 1005.7 |
| 20260506120037 | 70 | 181 | 1.7 | 7.8 | 0.00 | 0.00 | 0.00 | 49 | 1005.9 |
| 20260506114536 | 71 | 139 | 2.6 | 7.0 | 0.00 | 0.00 | 0.00 | 45 | 1005.8 |
| 20260506113039 | 70 | 149 | 2.6 | 7.0 | 0.00 | 0.00 | 0.00 | 44 | 1006.0 |
| 20260506111536 | 70 | 101 | 1.7 | 4.3 | 0.00 | 0.00 | 0.00 | 46 | 1006.1 |
| 20260506110041 | 71 | 272 | 1.7 | 5.2 | 0.00 | 0.00 | 0.00 | 46 | 1006.2 |
| 20260506104534 | 72 | 196 | 1.7 | 5.2 | 0.00 | 0.00 | 0.00 | 46 | 1006.3 |
| 20260506103032 | 72 | 214 | 0.9 | 4.3 | 0.00 | 0.00 | 0.00 | 47 | 1006.5 |
| 20260506101532 | 70 | 359 | 0.0 | 5.2 | 0.00 | 0.00 | 0.00 | 53 | 1006.7 |
| 20260506100026 | 68 | 149 | 2.6 | 6.1 | 0.00 | 0.00 | 0.00 | 54 | 1006.8 |
| 20260506094527 | 68 | 288 | 1.7 | 7.0 | 0.00 | 0.00 | 0.00 | 54 | 1007.0 |
| 20260506093031 | 68 | 209 | 2.6 | 6.1 | 0.00 | 0.00 | 0.00 | 52 | 1007.0 |
| 20260506091521 | 67 | 300 | 0.9 | 3.5 | 0.00 | 0.00 | 0.00 | 56 | 1006.9 |
| 20260506090019 | 67 | 185 | 0.0 | 6.1 | 0.00 | 0.00 | 0.00 | 57 | 1007.0 |
| 20260506084518 | 66 | 204 | 0.0 | 2.6 | 0.00 | 0.00 | 0.00 | 58 | 1007.1 |
| 20260506083027 | 66 | 50 | 0.9 | 3.5 | 0.00 | 0.00 | 0.00 | 58 | 1007.0 |
| 20260506081516 | 65 | 251 | 0.9 | 3.5 | 0.00 | 0.00 | 0.00 | 61 | 1007.1 |
| 20260506073008 | 63 | 234 | 0.0 | 5.2 | 0.00 | 0.00 | 0.00 | 66 | 1007.1 |
| 20260506071504 | 61 | 277 | 0.9 | 4.3 | 0.00 | 0.00 | 0.00 | 70 | 1007.3 |